Knoxville, TN

12:45 PM EDT on June 23, 2017 (GMT -0400)
McGhee Tyson

Weather History for KTYS - November, 2010

Change the Weather History Date:

Friday, November 5, 2010

  Actual Average Record
Temperature  
Mean Temperature 43 °F 53 °F  
Max Temperature 49 °F 65 °F 84 °F (1948)
Min Temperature 37 °F 42 °F 21 °F (1991)
Degree Days  
Heating Degree Days 22 12  
Month to date heating degree days 60 57  
Since 1 July heating degree days 221 276  
Cooling Degree Days 0 0  
Month to date cooling degree days 0 0  
Year to date cooling degree days 2022 1523  
Moisture  
Dew Point 37 °F    
Average Humidity 79    
Maximum Humidity 92    
Minimum Humidity 66    
Precipitation  
Precipitation 0.18 in 0.11 in 1.15 in (1963)
Month to date precipitation 1.22 0.57  
Year to date precipitation 38.09 39.92  
Snow  
Snow 0.00 in 0.00 in - ()
Month to date snowfall 0.0 0.0  
Since 1 July snowfall 0.0 0.0  
Since 1 September snowfall 0.0 0.0  
Snow Depth 0.00 in    
Sea Level Pressure  
Sea Level Pressure 29.88 in    
Wind  
Wind Speed 5 mph (West)    
Max Wind Speed 20 mph    
Max Gust Speed 25 mph    
Visibility 8 miles    
Events Rain    
T = Trace of Precipitation, MM = Missing Value Source: NWS Daily Summary

Daily Weather History Graph

Daily Weather History Graph

Search for Another Location

Airport or City:

Trip Planner

Search our weather history database for the weather conditions in past years. The results will help you decide how hot, cold, wet, or windy it might be!

Date:

Astronomy

Nov. 05, 2010 Rise Set
Actual Time 8:02 AM EDT 6:36 PM EDT
Civil Twilight 7:35 AM EDT 7:03 PM EDT
Nautical Twilight 7:04 AM EDT 7:33 PM EDT
Astronomical Twilight 6:35 AM EDT 8:03 PM EDT
Moon 7:24 AM EDT (11/5) 6:01 PM EDT (11/5)
Length of Visible Light 11h 27m
Length of Day
10h 34m
Waning Crescent, 0% of the Moon is Illuminated
Nov 5
Waning Crescent
Nov 6
New
Nov 13
First Quarter
Nov 21
Full
Nov 28
Last Quarter

Hourly Weather History & Observations

Time (EDT) Temp. Windchill Dew Point Humidity Pressure Visibility Wind Dir Wind Speed Gust Speed Precip Events Conditions
12:53 AM 45.0 °F 41.8 °F 37.0 °F 74% 29.72 in 10.0 mi WSW 5.8 mph - N/A   Mostly Cloudy
1:53 AM 42.1 °F 37.7 °F 36.0 °F 79% 29.73 in 10.0 mi SW 6.9 mph - N/A   Clear
2:53 AM 43.0 °F 40.3 °F 34.0 °F 71% 29.73 in 10.0 mi WSW 4.6 mph - N/A   Clear
3:53 AM 41.0 °F 37.1 °F 33.1 °F 73% 29.73 in 10.0 mi WSW 5.8 mph - N/A   Clear
4:53 AM 42.1 °F 39.2 °F 33.1 °F 70% 29.73 in 10.0 mi WSW 4.6 mph - N/A   Mostly Cloudy
5:53 AM 41.0 °F 36.4 °F 33.1 °F 73% 29.74 in 10.0 mi West 6.9 mph - N/A   Mostly Cloudy
6:53 AM 41.0 °F 38.0 °F 34.0 °F 76% 29.77 in 10.0 mi West 4.6 mph - N/A   Overcast
7:53 AM 39.9 °F 37.8 °F 34.0 °F 79% 29.79 in 10.0 mi WSW 3.5 mph - N/A   Mostly Cloudy
8:53 AM 41.0 °F 38.0 °F 35.1 °F 79% 29.82 in 10.0 mi South 4.6 mph - N/A   Mostly Cloudy
9:53 AM 42.1 °F 37.1 °F 36.0 °F 79% 29.84 in 10.0 mi WSW 8.1 mph - N/A   Overcast
10:53 AM 43.0 °F 40.3 °F 37.0 °F 80% 29.86 in 8.0 mi WNW 4.6 mph - 0.00 in Rain Light Rain
11:18 AM 42.8 °F 40.1 °F 37.4 °F 81% 29.86 in 6.0 mi North 4.6 mph - 0.00 in Rain Light Rain
11:53 AM 43.0 °F 38.8 °F 37.9 °F 82% 29.89 in 5.0 mi NNW 6.9 mph - 0.03 in Rain Light Rain
12:00 PM 42.8 °F 39.3 °F 37.4 °F 81% 29.89 in 7.0 mi WNW 5.8 mph - 0.00 in Rain Light Rain
12:32 PM 42.8 °F 40.1 °F 37.4 °F 81% 29.89 in 10.0 mi NNW 4.6 mph - 0.01 in Rain Light Rain
12:53 PM 44.1 °F 42.5 °F 39.0 °F 82% 29.90 in 10.0 mi NW 3.5 mph - 0.01 in   Mostly Cloudy
1:20 PM 44.6 °F 43.1 °F 37.4 °F 76% 29.89 in 10.0 mi NW 3.5 mph - N/A   Overcast
1:53 PM 46.0 °F - 37.9 °F 73% 29.89 in 10.0 mi Calm Calm - N/A   Overcast
2:25 PM 48.2 °F - 37.4 °F 66% 29.88 in 10.0 mi West 4.6 mph - N/A   Mostly Cloudy
2:53 PM 48.0 °F - 37.9 °F 68% 29.87 in 10.0 mi SW 9.2 mph - N/A   Mostly Cloudy
3:22 PM 44.6 °F 37.4 °F 37.4 °F 76% 29.89 in 6.0 mi NW 16.1 mph 24.2 mph 0.01 in Rain Heavy Ice Pellets
3:32 PM 39.2 °F 32.5 °F 35.6 °F 87% 29.90 in 2.5 mi NW 10.4 mph 25.3 mph 0.06 in Rain Heavy Ice Pellets
3:37 PM 39.2 °F 32.5 °F 35.6 °F 87% 29.91 in 2.5 mi WNW 10.4 mph - 0.08 in Rain Rain
3:46 PM 39.2 °F 34.2 °F 35.6 °F 87% 29.90 in 1.2 mi NW 6.9 mph 17.3 mph 0.11 in Rain Rain
3:51 PM 39.2 °F 35.0 °F 35.6 °F 87% 29.91 in 2.0 mi NNW 5.8 mph - 0.13 in Rain Light Rain
3:53 PM 39.9 °F 35.8 °F 37.0 °F 89% 29.91 in 3.0 mi NNW 5.8 mph - 0.14 in Rain Light Rain
4:53 PM 44.1 °F 41.5 °F 37.9 °F 79% 29.93 in 10.0 mi SW 4.6 mph - 0.00 in   Overcast
5:53 PM 43.0 °F 38.2 °F 37.9 °F 82% 29.95 in 10.0 mi SSW 8.1 mph - N/A   Mostly Cloudy
6:53 PM 39.9 °F 34.5 °F 37.0 °F 89% 29.97 in 10.0 mi SW 8.1 mph - N/A   Mostly Cloudy
7:53 PM 43.0 °F - 37.9 °F 82% 30.01 in 10.0 mi Calm Calm - N/A   Overcast
8:53 PM 42.1 °F 40.2 °F 39.0 °F 89% 30.04 in 10.0 mi South 3.5 mph - N/A   Mostly Cloudy
9:53 PM 42.1 °F 40.2 °F 39.0 °F 89% 30.06 in 10.0 mi South 3.5 mph - N/A   Overcast
10:53 PM 42.1 °F - 39.0 °F 89% 30.08 in 10.0 mi Calm Calm - N/A   Overcast
11:53 PM 41.0 °F 39.0 °F 37.9 °F 89% 30.07 in 10.0 mi SW 3.5 mph - N/A   Overcast